Location: Bjelajci
(45.0103°N, 16.1758°E)
Time: 19:51:20
(UTC+00:00)

Cosmos 2369 - Pass Details

Date: 14 July 2020
Orbit: 839 x 857 km, 71.0° (Epoch: 05 August)

Event Time Altitude Azimuth Distance (km) Brightness Sun altitude
Rises 01:40:35 0° 329° (NNW) 3,435 7.2 -14.1°
Reaches altitude 10° 01:43:07 10° 324° (NW) 2,496 6.3 -13.8°
Maximum altitude 01:48:35 48° 252° (WSW) 1,108 4.0 -13.2°
Drops below altitude 10° 01:54:02 10° 179° (S) 2,482 5.7 -12.6°
Enters shadow 01:54:53 - 177° (S) 2,791 6.0 -12.5°
